Time,TemperatureF,DewpointF,PressureIn,WindDirection,WindDirectionDegrees,WindSpeedMPH,WindSpeedGustMPH,Humidity,HourlyPrecipIn,Conditions,Clouds,dailyrainin,SoftwareType,DateUTC
2013-04-08 00:00:00,42.8,33.8,29.65,North,0,0.2,1.3,70,0.00,,,0.00,WUHU216HW,2013-04-08 04:00:00,
2013-04-08 00:01:00,42.8,34.2,29.65,North,0,0.3,1.3,71,0.00,,,0.00,WUHU216HW,2013-04-08 04:01:00,
2013-04-08 00:05:00,42.8,33.5,29.64,East,90,0.3,1.3,69,0.00,,,0.00,WUHU216HW,2013-04-08 04:05:00,
2013-04-08 00:10:00,42.8,33.5,29.64,North,0,0.2,0.7,69,0.00,,,0.00,WUHU216HW,2013-04-08 04:10:00,
2013-04-08 00:15:00,42.5,33.1,29.64,NNE,23,0.2,1.3,69,0.00,,,0.00,WUHU216HW,2013-04-08 04:15:00,
2013-04-08 00:20:00,42.3,33.3,29.64,North,0,0.0,1.3,70,0.00,,,0.00,WUHU216HW,2013-04-08 04:20:00,
2013-04-08 00:25:00,42.3,33.3,29.64,WSW,248,0.0,1.3,70,0.00,,,0.00,WUHU216HW,2013-04-08 04:25:00,
2013-04-08 00:31:00,42.3,33.7,29.64,NNW,330,0.2,1.3,71,0.00,,,0.00,WUHU216HW,2013-04-08 04:31:00,
2013-04-08 00:36:00,42.3,33.7,29.64,East,90,0.2,0.4,71,0.00,,,0.00,WUHU216HW,2013-04-08 04:36:00,
2013-04-08 00:41:00,42.3,33.3,29.64,East,90,0.0,0.2,70,0.00,,,0.00,WUHU216HW,2013-04-08 04:41:00,
2013-04-08 00:46:00,42.1,33.5,29.64,SW,225,0.2,0.4,71,0.00,,,0.00,WUHU216HW,2013-04-08 04:46:00,
2013-04-08 00:51:00,42.3,34.6,29.64,NNW,338,0.0,0.4,74,0.00,,,0.00,WUHU216HW,2013-04-08 04:51:00,
2013-04-08 00:56:00,42.3,33.9,29.64,NNW,338,0.0,0.2,72,0.00,,,0.00,WUHU216HW,2013-04-08 04:56:00,
2013-04-08 01:01:00,42.1,33.5,29.64,WNW,293,0.4,0.4,71,0.00,,,0.00,WUHU216HW,2013-04-08 05:01:00,
2013-04-08 01:06:00,41.9,33.3,29.64,SW,225,0.4,0.4,71,0.00,,,0.00,WUHU216HW,2013-04-08 05:06:00,
2013-04-08 01:11:00,41.6,32.6,29.64,SW,225,0.0,0.4,70,0.00,,,0.00,WUHU216HW,2013-04-08 05:11:00,
2013-04-08 01:16:00,41.4,32.8,29.64,WSW,248,0.2,0.2,71,0.00,,,0.00,WUHU216HW,2013-04-08 05:16:00,
2013-04-08 01:21:00,41.0,32.4,29.64,SW,225,0.4,0.4,71,0.00,,,0.00,WUHU216HW,2013-04-08 05:21:00,
2013-04-08 01:26:00,40.7,32.1,29.63,South,180,0.0,0.4,71,0.00,,,0.00,WUHU216HW,2013-04-08 05:26:00,
2013-04-08 01:32:00,40.5,31.9,29.63,South,180,0.0,0.2,71,0.00,,,0.00,WUHU216HW,2013-04-08 05:32:00,
2013-04-08 01:37:00,40.3,31.7,29.63,SSW,196,0.2,0.2,71,0.00,,,0.00,WUHU216HW,2013-04-08 05:37:00,
2013-04-08 01:42:00,40.1,31.8,29.63,WSW,248,0.2,1.1,72,0.00,,,0.00,WUHU216HW,2013-04-08 05:42:00,
2013-04-08 01:47:00,40.0,32.0,29.62,ENE,60,0.5,1.1,73,0.00,,,0.00,WUHU216HW,2013-04-08 05:47:00,
2013-04-08 01:52:00,39.8,31.8,29.63,North,0,0.0,0.7,73,0.00,,,0.00,WUHU216HW,2013-04-08 05:52:00,
2013-04-08 01:57:00,39.8,32.1,29.62,West,262,0.6,0.7,74,0.00,,,0.00,WUHU216HW,2013-04-08 05:57:00,
2013-04-08 02:02:00,39.8,32.1,29.62,ESE,113,0.0,0.7,74,0.00,,,0.00,WUHU216HW,2013-04-08 06:02:00,
2013-04-08 02:07:00,39.8,33.1,29.62,ENE,68,0.0,0.9,77,0.00,,,0.00,WUHU216HW,2013-04-08 06:07:00,
2013-04-08 02:12:00,39.8,33.1,29.62,ENE,68,0.0,0.9,77,0.00,,,0.00,WUHU216HW,2013-04-08 06:12:00,
2013-04-08 02:17:00,39.8,32.8,29.62,East,90,0.2,0.4,76,0.00,,,0.00,WUHU216HW,2013-04-08 06:17:00,
2013-04-08 02:22:00,39.6,32.3,29.62,East,90,0.4,0.4,75,0.00,,,0.00,WUHU216HW,2013-04-08 06:22:00,
2013-04-08 02:27:00,39.4,33.1,29.62,ENE,68,0.5,0.7,78,0.00,,,0.00,WUHU216HW,2013-04-08 06:27:00,
2013-04-08 02:32:00,39.4,33.5,29.62,ENE,68,0.0,0.7,79,0.00,,,0.00,WUHU216HW,2013-04-08 06:32:00,
2013-04-08 02:37:00,39.2,32.9,29.62,ENE,68,0.0,0.2,78,0.00,,,0.00,WUHU216HW,2013-04-08 06:37:00,
2013-04-08 02:42:00,39.1,32.5,29.62,ENE,68,0.0,0.2,77,0.00,,,0.00,WUHU216HW,2013-04-08 06:42:00,
2013-04-08 02:48:00,38.9,32.3,29.62,ENE,68,0.4,0.4,77,0.00,,,0.00,WUHU216HW,2013-04-08 06:48:00,
2013-04-08 02:53:00,38.5,32.3,29.62,ENE,68,0.2,0.4,78,0.00,,,0.00,WUHU216HW,2013-04-08 06:53:00,
2013-04-08 02:58:00,38.3,31.4,29.61,ENE,68,0.0,0.2,76,0.00,,,0.00,WUHU216HW,2013-04-08 06:58:00,
2013-04-08 03:03:00,38.2,31.2,29.61,ENE,68,0.4,0.4,76,0.00,,,0.00,WUHU216HW,2013-04-08 07:03:00,
2013-04-08 03:08:00,38.0,31.8,29.62,ENE,68,0.4,0.4,78,0.00,,,0.00,WUHU216HW,2013-04-08 07:08:00,
2013-04-08 03:13:00,37.6,31.4,29.61,ENE,68,0.0,0.7,78,0.00,,,0.00,WUHU216HW,2013-04-08 07:13:00,
2013-04-08 03:18:00,37.4,31.5,29.62,ENE,68,0.8,1.1,79,0.00,,,0.00,WUHU216HW,2013-04-08 07:18:00,
2013-04-08 03:23:00,37.3,31.3,29.61,ENE,68,0.0,1.1,79,0.00,,,0.00,WUHU216HW,2013-04-08 07:23:00,
2013-04-08 03:28:00,37.1,30.9,29.62,ENE,68,0.0,0.2,78,0.00,,,0.00,WUHU216HW,2013-04-08 07:28:00,
2013-04-08 03:33:00,36.9,31.0,29.62,ENE,68,0.0,0.4,79,0.00,,,0.00,WUHU216HW,2013-04-08 07:33:00,
2013-04-08 03:38:00,36.7,30.5,29.62,ENE,68,0.0,0.4,78,0.00,,,0.00,WUHU216HW,2013-04-08 07:38:00,
2013-04-08 03:43:00,36.5,30.3,29.62,ENE,68,0.0,0.0,78,0.00,,,0.00,WUHU216HW,2013-04-08 07:43:00,
2013-04-08 03:49:00,36.4,30.2,29.62,ENE,68,0.0,0.2,78,0.00,,,0.00,WUHU216HW,2013-04-08 07:49:00,
2013-04-08 03:54:00,36.2,30.0,29.62,ENE,68,0.0,0.2,78,0.00,,,0.00,WUHU216HW,2013-04-08 07:54:00,
2013-04-08 03:59:00,36.0,29.8,29.61,ENE,68,0.4,0.4,78,0.00,,,0.00,WUHU216HW,2013-04-08 07:59:00,
2013-04-08 04:04:00,35.8,29.6,29.61,ENE,68,0.7,0.7,78,0.00,,,0.00,WUHU216HW,2013-04-08 08:04:00,
2013-04-08 04:09:00,35.6,29.7,29.61,ENE,68,0.0,0.7,79,0.00,,,0.00,WUHU216HW,2013-04-08 08:09:00,
2013-04-08 04:14:00,35.6,30.1,29.61,ENE,68,0.7,0.7,80,0.00,,,0.00,WUHU216HW,2013-04-08 08:14:00,
2013-04-08 04:19:00,35.6,30.6,29.62,NNE,23,1.1,1.3,82,0.00,,,0.00,WUHU216HW,2013-04-08 08:19:00,
2013-04-08 04:24:00,35.6,30.6,29.61,NNE,23,0.6,1.3,82,0.00,,,0.00,WUHU216HW,2013-04-08 08:24:00,
2013-04-08 04:30:00,35.3,30.2,29.62,NNE,23,0.3,1.1,82,0.00,,,0.00,WUHU216HW,2013-04-08 08:30:00,
2013-04-08 04:35:00,35.1,30.7,29.62,NNE,23,0.7,1.8,84,0.00,,,0.00,WUHU216HW,2013-04-08 08:35:00,
2013-04-08 04:40:00,35.1,30.7,29.62,NNE,23,0.0,1.8,84,0.00,,,0.00,WUHU216HW,2013-04-08 08:40:00,
2013-04-08 04:45:00,34.9,30.5,29.62,NNE,23,0.2,0.9,84,0.00,,,0.00,WUHU216HW,2013-04-08 08:45:00,
2013-04-08 04:50:00,34.9,30.3,29.62,NNE,23,0.2,0.9,83,0.00,,,0.00,WUHU216HW,2013-04-08 08:50:00,
2013-04-08 04:55:00,34.7,30.1,29.62,NNE,23,0.0,0.9,83,0.00,,,0.00,WUHU216HW,2013-04-08 08:55:00,
2013-04-08 05:00:00,34.6,30.2,29.62,NNE,23,0.4,0.4,84,0.00,,,0.00,WUHU216HW,2013-04-08 09:00:00,
2013-04-08 05:05:00,34.4,30.2,29.62,NNE,23,0.4,0.9,85,0.00,,,0.00,WUHU216HW,2013-04-08 09:05:00,
2013-04-08 05:10:00,34.4,30.0,29.62,NNE,23,0.4,1.1,84,0.00,,,0.00,WUHU216HW,2013-04-08 09:10:00,
2013-04-08 05:15:00,34.2,29.8,29.62,NNE,23,0.0,1.1,84,0.00,,,0.00,WUHU216HW,2013-04-08 09:15:00,
2013-04-08 05:20:00,34.0,29.6,29.63,NNE,23,0.3,0.7,84,0.00,,,0.00,WUHU216HW,2013-04-08 09:20:00,
2013-04-08 05:26:00,34.0,29.6,29.63,NNE,23,0.2,0.7,84,0.00,,,0.00,WUHU216HW,2013-04-08 09:26:00,
2013-04-08 05:31:00,33.8,29.4,29.63,NNE,23,0.0,0.2,84,0.00,,,0.00,WUHU216HW,2013-04-08 09:31:00,
2013-04-08 05:36:00,33.8,29.7,29.63,NNE,23,0.2,0.2,85,0.00,,,0.00,WUHU216HW,2013-04-08 09:36:00,
2013-04-08 05:41:00,33.8,29.7,29.63,ESE,113,0.5,0.7,85,0.00,,,0.00,WUHU216HW,2013-04-08 09:41:00,
2013-04-08 05:46:00,33.7,29.5,29.63,ENE,68,0.3,0.7,85,0.00,,,0.00,WUHU216HW,2013-04-08 09:46:00,
2013-04-08 05:51:00,33.7,29.3,29.63,SSE,158,0.4,0.4,84,0.00,,,0.00,WUHU216HW,2013-04-08 09:51:00,
2013-04-08 05:56:00,33.5,29.3,29.64,NNE,23,0.2,1.1,85,0.00,,,0.00,WUHU216HW,2013-04-08 09:56:00,
2013-04-08 06:01:00,33.5,29.3,29.64,WSW,246,0.7,1.1,85,0.00,,,0.00,WUHU216HW,2013-04-08 10:01:00,
2013-04-08 06:06:00,33.7,29.5,29.64,NNE,23,0.9,1.1,85,0.00,,,0.00,WUHU216HW,2013-04-08 10:06:00,
2013-04-08 06:11:00,33.7,29.8,29.64,NE,45,0.3,1.1,86,0.00,,,0.00,WUHU216HW,2013-04-08 10:11:00,
2013-04-08 06:17:00,34.2,30.6,29.64,West,270,0.2,1.1,87,0.00,,,0.00,WUHU216HW,2013-04-08 10:17:00,
2013-04-08 06:22:00,34.7,31.8,29.65,NW,315,0.3,0.7,89,0.00,,,0.00,WUHU216HW,2013-04-08 10:22:00,
2013-04-08 06:27:00,35.3,32.3,29.65,SSE,158,0.2,0.7,89,0.00,,,0.00,WUHU216HW,2013-04-08 10:27:00,
2013-04-08 06:32:00,35.5,32.5,29.65,NW,310,0.3,0.7,89,0.00,,,0.00,WUHU216HW,2013-04-08 10:32:00,
2013-04-08 06:37:00,35.8,33.1,29.65,NW,321,1.0,1.6,90,0.00,,,0.00,WUHU216HW,2013-04-08 10:37:00,
2013-04-08 06:42:00,36.7,34.3,29.66,NE,40,1.2,2.7,91,0.00,,,0.00,WUHU216HW,2013-04-08 10:42:00,
2013-04-08 06:47:00,37.3,34.8,29.65,SW,225,0.6,2.7,91,0.00,,,0.00,WUHU216HW,2013-04-08 10:47:00,
2013-04-08 06:52:00,37.8,35.4,29.65,NNE,23,1.3,2.5,91,0.00,,,0.00,WUHU216HW,2013-04-08 10:52:00,
2013-04-08 06:57:00,38.3,35.9,29.66,SE,135,0.4,2.5,91,0.00,,,0.00,WUHU216HW,2013-04-08 10:57:00,
2013-04-08 07:02:00,38.7,36.3,29.66,SSW,203,0.9,1.1,91,0.00,,,0.00,WUHU216HW,2013-04-08 11:02:00,
2013-04-08 07:08:00,39.2,37.1,29.66,West,262,0.3,1.8,92,0.00,,,0.00,WUHU216HW,2013-04-08 11:08:00,
2013-04-08 07:13:00,39.4,37.0,29.67,SE,124,0.5,1.8,91,0.00,,,0.00,WUHU216HW,2013-04-08 11:13:00,
2013-04-08 07:18:00,39.8,37.1,29.67,SSE,158,0.2,1.3,90,0.00,,,0.00,WUHU216HW,2013-04-08 11:18:00,
2013-04-08 07:23:00,40.0,37.3,29.68,SSE,158,0.0,0.4,90,0.00,,,0.00,WUHU216HW,2013-04-08 11:23:00,
2013-04-08 07:28:00,40.0,37.0,29.67,SSE,158,0.4,0.4,89,0.00,,,0.00,WUHU216HW,2013-04-08 11:28:00,
2013-04-08 07:33:00,40.1,36.8,29.67,SSE,158,0.0,0.4,88,0.00,,,0.00,WUHU216HW,2013-04-08 11:33:00,
2013-04-08 07:38:00,40.5,36.9,29.68,East,90,0.0,0.4,87,0.00,,,0.00,WUHU216HW,2013-04-08 11:38:00,
2013-04-08 07:43:00,41.0,37.5,29.67,North,0,0.0,0.7,87,0.00,,,0.00,WUHU216HW,2013-04-08 11:43:00,
2013-04-08 07:48:00,41.6,38.0,29.67,SW,223,0.3,0.9,87,0.00,,,0.00,WUHU216HW,2013-04-08 11:48:00,
2013-04-08 07:53:00,42.5,38.5,29.67,SSE,158,0.4,0.9,86,0.00,,,0.00,WUHU216HW,2013-04-08 11:53:00,
2013-04-08 07:58:00,43.4,39.2,29.68,West,271,0.6,1.8,85,0.00,,,0.00,WUHU216HW,2013-04-08 11:58:00,
2013-04-08 08:03:00,44.3,38.8,29.68,NNE,23,3.4,3.4,81,0.00,,,0.00,WUHU216HW,2013-04-08 12:03:00,
2013-04-08 08:08:00,45.0,39.5,29.68,NNE,23,0.9,3.4,81,0.00,,,0.00,WUHU216HW,2013-04-08 12:08:00,
2013-04-08 08:14:00,45.9,39.4,29.68,NNE,23,1.8,2.0,78,0.00,,,0.00,WUHU216HW,2013-04-08 12:14:00,
2013-04-08 08:19:00,46.4,39.7,29.68,East,90,0.7,3.4,77,0.00,,,0.00,WUHU216HW,2013-04-08 12:19:00,
2013-04-08 08:24:00,46.8,39.6,29.68,North,0,4.3,4.3,76,0.00,,,0.00,WUHU216HW,2013-04-08 12:24:00,
2013-04-08 08:29:00,47.2,39.6,29.68,SE,125,0.9,4.3,75,0.00,,,0.00,WUHU216HW,2013-04-08 12:29:00,
2013-04-08 08:34:00,47.9,40.0,29.68,SSW,203,1.8,4.3,74,0.00,,,0.00,WUHU216HW,2013-04-08 12:34:00,
2013-04-08 08:39:00,48.1,39.4,29.69,SW,225,0.7,4.0,72,0.00,,,0.00,WUHU216HW,2013-04-08 12:39:00,
2013-04-08 08:44:00,48.4,38.7,29.69,SW,232,1.4,5.6,69,0.00,,,0.00,WUHU216HW,2013-04-08 12:44:00,
2013-04-08 08:49:00,48.6,38.5,29.69,NE,46,2.0,5.6,68,0.00,,,0.00,WUHU216HW,2013-04-08 12:49:00,
2013-04-08 08:54:00,49.1,38.6,29.69,NNE,30,1.9,3.8,67,0.00,,,0.00,WUHU216HW,2013-04-08 12:54:00,
2013-04-08 08:59:00,49.5,37.8,29.69,NE,45,5.8,5.8,64,0.00,,,0.00,WUHU216HW,2013-04-08 12:59:00,
2013-04-08 09:05:00,49.7,38.0,29.69,West,273,1.7,5.8,64,0.00,,,0.00,WUHU216HW,2013-04-08 13:05:00,
2013-04-08 09:10:00,49.9,38.2,29.69,WSW,241,0.8,4.0,64,0.00,,,0.00,WUHU216HW,2013-04-08 13:10:00,
2013-04-08 09:15:00,50.2,37.7,29.69,North,349,2.8,5.6,62,0.00,,,0.00,WUHU216HW,2013-04-08 13:15:00,
2013-04-08 09:20:00,50.4,37.8,29.69,NNE,23,3.8,5.6,62,0.00,,,0.00,WUHU216HW,2013-04-08 13:20:00,
2013-04-08 09:25:00,50.4,37.8,29.69,East,81,2.0,3.8,62,0.00,,,0.00,WUHU216HW,2013-04-08 13:25:00,
2013-04-08 09:30:00,50.0,36.7,29.69,NNW,336,3.3,4.7,60,0.00,,,0.00,WUHU216HW,2013-04-08 13:30:00,
2013-04-08 09:35:00,50.0,37.1,29.69,SW,225,1.8,4.7,61,0.00,,,0.00,WUHU216HW,2013-04-08 13:35:00,
2013-04-08 09:40:00,50.0,36.7,29.70,North,11,3.0,7.4,60,0.00,,,0.00,WUHU216HW,2013-04-08 13:40:00,
2013-04-08 09:45:00,50.0,36.7,29.70,NNW,338,1.6,7.4,60,0.00,,,0.00,WUHU216HW,2013-04-08 13:45:00,
2013-04-08 09:51:00,50.0,36.7,29.71,North,0,1.8,4.9,60,0.00,,,0.00,WUHU216HW,2013-04-08 13:51:00,
2013-04-08 09:56:00,50.0,36.3,29.71,SSE,168,2.4,4.9,59,0.00,,,0.00,WUHU216HW,2013-04-08 13:56:00,
2013-04-08 10:01:00,50.0,36.3,29.71,WSW,248,1.8,4.0,59,0.00,,,0.00,WUHU216HW,2013-04-08 14:01:00,
2013-04-08 10:06:00,50.0,36.3,29.71,NW,310,1.6,4.0,59,0.00,,,0.00,WUHU216HW,2013-04-08 14:06:00,
2013-04-08 10:11:00,50.2,36.5,29.71,South,190,1.9,7.8,59,0.00,,,0.00,WUHU216HW,2013-04-08 14:11:00,
2013-04-08 10:17:00,50.4,36.2,29.72,SW,225,4.0,7.8,58,0.00,,,0.00,WUHU216HW,2013-04-08 14:17:00,
2013-04-08 10:22:00,50.4,35.7,29.72,SW,233,1.5,5.6,57,0.00,,,0.00,WUHU216HW,2013-04-08 14:22:00,
2013-04-08 10:27:00,50.6,36.3,29.72,ENE,68,2.7,5.6,58,0.00,,,0.00,WUHU216HW,2013-04-08 14:27:00,
2013-04-08 10:32:00,50.9,36.6,29.72,West,272,1.3,3.1,58,0.00,,,0.00,WUHU216HW,2013-04-08 14:32:00,
2013-04-08 10:37:00,51.5,37.1,29.72,NNW,330,0.7,4.0,58,0.00,,,0.00,WUHU216HW,2013-04-08 14:37:00,
2013-04-08 10:42:00,52.0,36.7,29.72,SW,231,2.8,5.1,56,0.00,,,0.00,WUHU216HW,2013-04-08 14:42:00,
2013-04-08 10:47:00,52.2,36.5,29.72,WSW,248,1.9,5.1,55,0.00,,,0.00,WUHU216HW,2013-04-08 14:47:00,
2013-04-08 10:52:00,53.1,37.7,29.72,WSW,244,1.7,4.3,56,0.00,,,0.00,WUHU216HW,2013-04-08 14:52:00,
2013-04-08 10:57:00,53.6,37.4,29.73,WSW,248,1.8,4.5,54,0.00,,,0.00,WUHU216HW,2013-04-08 14:57:00,
2013-04-08 11:02:00,53.3,35.7,29.73,North,9,2.2,5.6,51,0.00,,,0.00,WUHU216HW,2013-04-08 15:02:00,
2013-04-08 11:07:00,52.9,35.7,29.73,SW,223,2.4,6.3,52,0.00,,,0.00,WUHU216HW,2013-04-08 15:07:00,
2013-04-08 11:12:00,53.6,35.9,29.73,WSW,248,2.2,6.3,51,0.00,,,0.00,WUHU216HW,2013-04-08 15:12:00,
2013-04-08 11:17:00,54.5,36.3,29.74,NNE,23,2.9,3.4,50,0.00,,,0.00,WUHU216HW,2013-04-08 15:17:00,
2013-04-08 11:23:00,55.8,37.9,29.74,NNE,28,1.5,3.4,51,0.00,,,0.00,WUHU216HW,2013-04-08 15:23:00,
2013-04-08 11:28:00,56.9,38.5,29.74,ENE,68,1.3,4.5,50,0.00,,,0.00,WUHU216HW,2013-04-08 15:28:00,
2013-04-08 11:33:00,57.1,37.0,29.74,North,0,7.4,7.4,47,0.00,,,0.00,WUHU216HW,2013-04-08 15:33:00,
2013-04-08 11:38:00,57.4,38.4,29.74,WSW,255,1.0,7.4,49,0.00,,,0.00,WUHU216HW,2013-04-08 15:38:00,
2013-04-08 11:43:00,58.9,39.2,29.74,East,90,2.2,7.4,48,0.00,,,0.00,WUHU216HW,2013-04-08 15:43:00,
2013-04-08 11:48:00,59.9,37.9,29.74,NNE,23,3.6,3.6,44,0.00,,,0.00,WUHU216HW,2013-04-08 15:48:00,
2013-04-08 11:53:00,59.6,38.1,29.74,West,270,1.6,3.6,45,0.00,,,0.00,WUHU216HW,2013-04-08 15:53:00,
2013-04-08 11:58:00,60.5,38.9,29.74,SW,225,2.0,3.6,45,0.00,,,0.00,WUHU216HW,2013-04-08 15:58:00,
2013-04-08 12:03:00,61.4,37.5,29.73,ESE,106,2.7,5.8,41,0.00,,,0.00,WUHU216HW,2013-04-08 16:03:00,
2013-04-08 12:08:00,60.8,36.4,29.74,North,350,2.9,9.2,40,0.00,,,0.00,WUHU216HW,2013-04-08 16:08:00,
2013-04-08 12:13:00,61.0,38.3,29.74,WSW,247,1.6,9.2,43,0.00,,,0.00,WUHU216HW,2013-04-08 16:13:00,
2013-04-08 12:19:00,61.6,37.0,29.74,North,10,3.2,4.7,40,0.00,,,0.00,WUHU216HW,2013-04-08 16:19:00,
2013-04-08 12:24:00,61.9,36.6,29.73,WSW,237,3.0,5.8,39,0.00,,,0.00,WUHU216HW,2013-04-08 16:24:00,
2013-04-08 12:29:00,62.5,36.4,29.73,ENE,68,4.0,5.8,38,0.00,,,0.00,WUHU216HW,2013-04-08 16:29:00,
2013-04-08 12:34:00,61.9,36.6,29.73,NNW,342,3.2,5.6,39,0.00,,,0.00,WUHU216HW,2013-04-08 16:34:00,
2013-04-08 12:39:00,62.3,37.6,29.73,WSW,247,1.5,5.6,40,0.00,,,0.00,WUHU216HW,2013-04-08 16:39:00,
2013-04-08 12:44:00,62.6,35.8,29.73,North,350,4.1,11.2,37,0.00,,,0.00,WUHU216HW,2013-04-08 16:44:00,
2013-04-08 12:49:00,62.6,36.5,29.72,WSW,240,1.6,11.2,38,0.00,,,0.00,WUHU216HW,2013-04-08 16:49:00,
2013-04-08 12:54:00,63.4,37.2,29.72,NNE,19,2.4,4.3,38,0.00,,,0.00,WUHU216HW,2013-04-08 16:54:00,
2013-04-08 12:59:00,64.1,38.5,29.72,WSW,257,1.3,4.3,39,0.00,,,0.00,WUHU216HW,2013-04-08 16:59:00,
2013-04-08 13:04:00,63.7,36.1,29.72,North,1,2.9,5.4,36,0.00,,,0.00,WUHU216HW,2013-04-08 17:04:00,
2013-04-08 13:09:00,64.1,37.1,29.72,SW,225,2.2,5.4,37,0.00,,,0.00,WUHU216HW,2013-04-08 17:09:00,
2013-04-08 13:15:00,63.9,37.0,29.72,SW,225,2.5,4.9,37,0.00,,,0.00,WUHU216HW,2013-04-08 17:15:00,
2013-04-08 13:20:00,64.8,35.7,29.72,East,90,3.1,4.9,34,0.00,,,0.00,WUHU216HW,2013-04-08 17:20:00,
2013-04-08 13:25:00,64.6,35.5,29.72,WSW,248,3.4,5.1,34,0.00,,,0.00,WUHU216HW,2013-04-08 17:25:00,
2013-04-08 13:30:00,64.8,35.7,29.72,SW,234,1.2,6.3,34,0.00,,,0.00,WUHU216HW,2013-04-08 17:30:00,
2013-04-08 13:35:00,64.8,35.7,29.73,NNE,23,1.8,6.3,34,0.00,,,0.00,WUHU216HW,2013-04-08 17:35:00,
2013-04-08 13:40:00,64.6,35.5,29.72,ENE,68,1.8,3.4,34,0.00,,,0.00,WUHU216HW,2013-04-08 17:40:00,
2013-04-08 13:45:00,64.4,35.3,29.72,NNE,25,1.5,4.0,34,0.00,,,0.00,WUHU216HW,2013-04-08 17:45:00,
2013-04-08 13:51:00,64.4,35.3,29.73,NW,311,0.6,4.0,34,0.00,,,0.00,WUHU216HW,2013-04-08 17:51:00,
2013-04-08 13:56:00,63.7,33.9,29.73,SW,214,1.9,7.6,33,0.00,,,0.00,WUHU216HW,2013-04-08 17:56:00,
2013-04-08 14:01:00,63.7,34.7,29.73,SSW,193,2.6,7.6,34,0.00,,,0.00,WUHU216HW,2013-04-08 18:01:00,
2013-04-08 14:07:00,64.4,37.4,29.72,NW,319,0.6,4.3,37,0.00,,,0.00,WUHU216HW,2013-04-08 18:07:00,
2013-04-08 14:12:00,65.2,35.2,29.73,NE,45,2.2,3.4,33,0.00,,,0.00,WUHU216HW,2013-04-08 18:12:00,
2013-04-08 14:17:00,65.2,34.5,29.73,East,91,2.4,4.9,32,0.00,,,0.00,WUHU216HW,2013-04-08 18:17:00,
2013-04-08 14:22:00,64.8,35.7,29.73,NE,38,2.3,4.9,34,0.00,,,0.00,WUHU216HW,2013-04-08 18:22:00,
2013-04-08 14:27:00,65.0,33.6,29.73,NE,45,1.6,3.4,31,0.00,,,0.00,WUHU216HW,2013-04-08 18:27:00,
2013-04-08 14:32:00,64.8,35.7,29.73,NNE,23,2.2,2.9,34,0.00,,,0.00,WUHU216HW,2013-04-08 18:32:00,
2013-04-08 14:37:00,64.4,34.6,29.73,ENE,59,2.3,4.7,33,0.00,,,0.00,WUHU216HW,2013-04-08 18:37:00,
2013-04-08 14:42:00,64.4,33.8,29.72,WNW,293,1.6,4.7,32,0.00,,,0.00,WUHU216HW,2013-04-08 18:42:00,
2013-04-08 14:47:00,64.1,34.2,29.72,WSW,248,2.9,4.0,33,0.00,,,0.00,WUHU216HW,2013-04-08 18:47:00,
2013-04-08 14:52:00,64.1,34.2,29.72,WSW,248,1.6,2.9,33,0.00,,,0.00,WUHU216HW,2013-04-08 18:52:00,
2013-04-08 14:57:00,64.3,33.7,29.72,NNE,23,3.6,3.6,32,0.00,,,0.00,WUHU216HW,2013-04-08 18:57:00,
2013-04-08 15:02:00,63.9,34.8,29.72,SW,226,1.4,3.6,34,0.00,,,0.00,WUHU216HW,2013-04-08 19:02:00,
2013-04-08 15:07:00,63.9,34.1,29.72,ESE,113,1.8,6.0,33,0.00,,,0.00,WUHU216HW,2013-04-08 19:07:00,
2013-04-08 15:12:00,63.7,34.7,29.72,North,0,1.6,6.0,34,0.00,,,0.00,WUHU216HW,2013-04-08 19:12:00,
2013-04-08 15:17:00,63.7,33.2,29.72,NNW,341,0.5,5.8,32,0.00,,,0.00,WUHU216HW,2013-04-08 19:17:00,
2013-04-08 15:22:00,63.5,34.5,29.72,WSW,248,2.2,5.8,34,0.00,,,0.00,WUHU216HW,2013-04-08 19:22:00,
2013-04-08 15:27:00,63.4,33.6,29.72,NNE,23,2.0,2.5,33,0.00,,,0.00,WUHU216HW,2013-04-08 19:27:00,
2013-04-08 15:32:00,63.4,33.6,29.72,WSW,248,2.9,2.9,33,0.00,,,0.00,WUHU216HW,2013-04-08 19:32:00,
2013-04-08 15:37:00,63.4,33.6,29.72,WSW,248,2.7,2.9,33,0.00,,,0.00,WUHU216HW,2013-04-08 19:37:00,
2013-04-08 15:43:00,63.4,32.9,29.72,ENE,60,1.2,2.9,32,0.00,,,0.00,WUHU216HW,2013-04-08 19:43:00,
2013-04-08 15:48:00,63.0,32.6,29.72,ENE,68,1.8,2.7,32,0.00,,,0.00,WUHU216HW,2013-04-08 19:48:00,
2013-04-08 15:53:00,63.0,33.3,29.72,NNE,21,1.4,2.7,33,0.00,,,0.00,WUHU216HW,2013-04-08 19:53:00,
2013-04-08 15:58:00,63.0,33.3,29.72,West,259,2.5,4.9,33,0.00,,,0.00,WUHU216HW,2013-04-08 19:58:00,
2013-04-08 16:03:00,62.8,32.4,29.72,South,180,1.8,4.9,32,0.00,,,0.00,WUHU216HW,2013-04-08 20:03:00,
2013-04-08 16:08:00,62.8,32.4,29.72,WSW,248,2.2,6.7,32,0.00,,,0.00,WUHU216HW,2013-04-08 20:08:00,
2013-04-08 16:13:00,62.8,32.4,29.72,SW,225,1.3,6.7,32,0.00,,,0.00,WUHU216HW,2013-04-08 20:13:00,
2013-04-08 16:18:00,62.8,32.4,29.73,ENE,57,1.6,2.5,32,0.00,,,0.00,WUHU216HW,2013-04-08 20:18:00,
2013-04-08 16:23:00,62.6,32.2,29.72,East,90,1.3,1.8,32,0.00,,,0.00,WUHU216HW,2013-04-08 20:23:00,
2013-04-08 16:28:00,62.5,32.0,29.72,NE,45,1.2,2.2,32,0.00,,,0.00,WUHU216HW,2013-04-08 20:28:00,
2013-04-08 16:33:00,62.1,31.1,29.71,NE,45,1.1,2.2,31,0.00,,,0.00,WUHU216HW,2013-04-08 20:33:00,
2013-04-08 16:38:00,61.7,31.4,29.71,NE,45,1.0,2.0,32,0.00,,,0.00,WUHU216HW,2013-04-08 20:38:00,
2013-04-08 16:43:00,61.7,31.4,29.71,ESE,111,0.6,1.8,32,0.00,,,0.00,WUHU216HW,2013-04-08 20:43:00,
2013-04-08 16:49:00,61.9,31.6,29.71,North,359,1.2,2.7,32,0.00,,,0.00,WUHU216HW,2013-04-08 20:49:00,
2013-04-08 16:54:00,61.9,31.6,29.71,SSW,203,1.1,2.7,32,0.00,,,0.00,WUHU216HW,2013-04-08 20:54:00,
2013-04-08 16:59:00,61.7,31.4,29.71,WSW,254,0.8,2.7,32,0.00,,,0.00,WUHU216HW,2013-04-08 20:59:00,
2013-04-08 17:04:00,61.7,31.4,29.72,West,266,1.2,2.7,32,0.00,,,0.00,WUHU216HW,2013-04-08 21:04:00,
2013-04-08 17:09:00,61.6,31.2,29.72,ENE,68,0.7,1.6,32,0.00,,,0.00,WUHU216HW,2013-04-08 21:09:00,
2013-04-08 17:14:00,61.6,31.2,29.71,NE,45,0.7,1.1,32,0.00,,,0.00,WUHU216HW,2013-04-08 21:14:00,
2013-04-08 17:19:00,61.6,32.0,29.71,NNE,23,0.2,0.7,33,0.00,,,0.00,WUHU216HW,2013-04-08 21:19:00,
2013-04-08 17:25:00,61.6,31.2,29.71,North,358,0.4,2.9,32,0.00,,,0.00,WUHU216HW,2013-04-08 21:25:00,
2013-04-08 17:30:00,61.4,31.1,29.71,ENE,68,1.6,2.9,32,0.00,,,0.00,WUHU216HW,2013-04-08 21:30:00,
2013-04-08 17:35:00,61.2,30.3,29.71,ENE,62,0.8,2.2,31,0.00,,,0.00,WUHU216HW,2013-04-08 21:35:00,
2013-04-08 17:40:00,60.8,30.6,29.71,NNE,23,0.2,1.3,32,0.00,,,0.00,WUHU216HW,2013-04-08 21:40:00,
2013-04-08 17:45:00,60.8,30.6,29.71,WSW,248,1.1,1.3,32,0.00,,,0.00,WUHU216HW,2013-04-08 21:45:00,
2013-04-08 17:50:00,60.8,29.9,29.70,West,270,0.2,1.3,31,0.00,,,0.00,WUHU216HW,2013-04-08 21:50:00,
2013-04-08 17:55:00,60.7,30.4,29.70,West,270,0.2,0.2,32,0.00,,,0.00,WUHU216HW,2013-04-08 21:55:00,
2013-04-08 18:00:00,60.7,31.1,29.70,North,0,0.0,0.2,33,0.00,,,0.00,WUHU216HW,2013-04-08 22:00:00,
2013-04-08 18:05:00,60.5,31.1,29.70,North,0,0.0,0.0,33,0.00,,,0.00,WUHU216HW,2013-04-08 22:05:00,
2013-04-08 18:10:00,60.5,31.1,29.71,North,0,0.0,0.0,33,0.00,,,0.00,WUHU216HW,2013-04-08 22:10:00,
2013-04-08 18:15:00,60.3,30.9,29.71,North,0,0.0,0.0,33,0.00,,,0.00,WUHU216HW,2013-04-08 22:15:00,
2013-04-08 18:20:00,59.8,31.2,29.71,North,0,0.0,0.0,34,0.00,,,0.00,WUHU216HW,2013-04-08 22:20:00,
2013-04-08 18:25:00,59.2,32.1,29.71,North,0,0.0,0.0,36,0.00,,,0.00,WUHU216HW,2013-04-08 22:25:00,
2013-04-08 18:30:00,58.7,31.6,29.72,North,0,0.0,0.0,36,0.00,,,0.00,WUHU216HW,2013-04-08 22:30:00,
2013-04-08 18:35:00,58.3,31.3,29.72,North,0,0.0,0.0,36,0.00,,,0.00,WUHU216HW,2013-04-08 22:35:00,
2013-04-08 18:40:00,57.8,31.5,29.72,North,0,0.0,0.0,37,0.00,,,0.00,WUHU216HW,2013-04-08 22:40:00,
2013-04-08 18:45:00,57.2,31.1,29.72,North,0,0.0,0.0,37,0.00,,,0.00,WUHU216HW,2013-04-08 22:45:00,
2013-04-08 18:50:00,56.9,31.4,29.72,North,0,0.0,0.0,38,0.00,,,0.00,WUHU216HW,2013-04-08 22:50:00,
2013-04-08 19:00:00,56.2,31.4,29.73,North,0,0.0,0.0,39,0.00,,,0.00,WUHU216HW,2013-04-08 23:00:00,
2013-04-08 19:05:00,55.8,31.2,29.73,North,0,0.0,0.0,39,0.00,,,0.00,WUHU216HW,2013-04-08 23:05:00,
2013-04-08 19:10:00,55.3,31.3,29.73,North,0,0.0,0.0,40,0.00,,,0.00,WUHU216HW,2013-04-08 23:10:00,
2013-04-08 19:15:00,54.9,31.1,29.73,North,0,0.0,0.0,40,0.00,,,0.00,WUHU216HW,2013-04-08 23:15:00,
2013-04-08 19:20:00,54.4,31.1,29.73,North,0,0.0,0.0,41,0.00,,,0.00,WUHU216HW,2013-04-08 23:20:00,
2013-04-08 19:25:00,54.0,30.8,29.74,North,0,0.0,0.0,41,0.00,,,0.00,WUHU216HW,2013-04-08 23:25:00,
2013-04-08 19:30:00,53.6,31.0,29.74,North,0,0.0,0.0,42,0.00,,,0.00,WUHU216HW,2013-04-08 23:30:00,
2013-04-08 19:35:00,52.9,31.5,29.74,North,0,0.0,0.0,44,0.00,,,0.00,WUHU216HW,2013-04-08 23:35:00,
2013-04-08 19:40:00,52.6,31.7,29.74,North,0,0.0,0.0,45,0.00,,,0.00,WUHU216HW,2013-04-08 23:40:00,
2013-04-08 19:45:00,52.2,30.8,29.74,North,0,0.0,0.0,44,0.00,,,0.00,WUHU216HW,2013-04-08 23:45:00,
2013-04-08 19:50:00,51.8,30.5,29.74,North,0,0.0,0.0,44,0.00,,,0.00,WUHU216HW,2013-04-08 23:50:00,
2013-04-08 19:55:00,51.3,30.0,29.74,North,0,0.0,0.0,44,0.00,,,0.00,WUHU216HW,2013-04-08 23:55:00,
2013-04-08 20:01:00,50.8,30.1,29.74,North,0,0.0,0.0,45,0.00,,,0.00,WUHU216HW,2013-04-09 00:01:00,
2013-04-08 20:06:00,50.4,30.3,29.74,North,0,0.0,0.0,46,0.00,,,0.00,WUHU216HW,2013-04-09 00:06:00,
2013-04-08 20:11:00,50.0,31.2,29.74,North,0,0.0,0.0,48,0.00,,,0.00,WUHU216HW,2013-04-09 00:11:00,
2013-04-08 20:16:00,49.5,30.6,29.74,North,0,0.0,0.0,48,0.00,,,0.00,WUHU216HW,2013-04-09 00:16:00,
2013-04-08 20:21:00,49.3,30.4,29.74,North,0,0.0,0.0,48,0.00,,,0.00,WUHU216HW,2013-04-09 00:21:00,
2013-04-08 20:26:00,48.8,30.4,29.74,North,0,0.0,0.0,49,0.00,,,0.00,WUHU216HW,2013-04-09 00:26:00,
2013-04-08 20:32:00,48.4,31.5,29.75,North,0,0.0,0.0,52,0.00,,,0.00,WUHU216HW,2013-04-09 00:32:00,
2013-04-08 20:37:00,48.2,30.9,29.75,North,0,0.0,0.0,51,0.00,,,0.00,WUHU216HW,2013-04-09 00:37:00,
2013-04-08 20:42:00,47.9,30.6,29.76,North,0,0.0,0.0,51,0.00,,,0.00,WUHU216HW,2013-04-09 00:42:00,
2013-04-08 20:47:00,47.7,31.3,29.77,North,0,0.0,0.4,53,0.00,,,0.00,WUHU216HW,2013-04-09 00:47:00,
2013-04-08 20:52:00,47.5,31.1,29.77,North,0,0.4,0.4,53,0.00,,,0.00,WUHU216HW,2013-04-09 00:52:00,
2013-04-08 20:57:00,47.3,31.4,29.77,North,0,0.0,0.4,54,0.00,,,0.00,WUHU216HW,2013-04-09 00:57:00,
2013-04-08 21:02:00,47.2,31.3,29.77,North,0,0.0,0.2,54,0.00,,,0.00,WUHU216HW,2013-04-09 01:02:00,
2013-04-08 21:07:00,46.8,32.3,29.77,North,0,0.7,0.7,57,0.00,,,0.00,WUHU216HW,2013-04-09 01:07:00,
2013-04-08 21:12:00,46.8,32.8,29.77,North,0,0.2,0.9,58,0.00,,,0.00,WUHU216HW,2013-04-09 01:12:00,
2013-04-08 21:17:00,46.8,32.3,29.77,West,270,0.4,0.9,57,0.00,,,0.00,WUHU216HW,2013-04-09 01:17:00,
2013-04-08 21:22:00,46.6,32.1,29.77,West,270,0.4,0.4,57,0.00,,,0.00,WUHU216HW,2013-04-09 01:22:00,
2013-04-08 21:27:00,46.4,32.0,29.78,West,270,0.0,0.4,57,0.00,,,0.00,WUHU216HW,2013-04-09 01:27:00,
2013-04-08 21:33:00,46.3,32.2,29.77,North,5,0.3,0.4,58,0.00,,,0.00,WUHU216HW,2013-04-09 01:33:00,
2013-04-08 21:38:00,46.1,32.0,29.77,North,0,0.0,0.4,58,0.00,,,0.00,WUHU216HW,2013-04-09 01:38:00,
2013-04-08 21:43:00,46.1,32.5,29.78,ENE,59,0.3,0.4,59,0.00,,,0.00,WUHU216HW,2013-04-09 01:43:00,
2013-04-08 21:48:00,45.9,32.4,29.78,ENE,68,0.0,0.4,59,0.00,,,0.00,WUHU216HW,2013-04-09 01:48:00,
2013-04-08 21:53:00,45.9,33.2,29.77,NE,45,0.2,0.2,61,0.00,,,0.00,WUHU216HW,2013-04-09 01:53:00,
2013-04-08 21:58:00,45.9,32.9,29.78,NE,45,0.0,0.2,60,0.00,,,0.00,WUHU216HW,2013-04-09 01:58:00,
2013-04-08 22:03:00,45.9,34.0,29.78,NE,45,0.4,0.9,63,0.00,,,0.00,WUHU216HW,2013-04-09 02:03:00,
2013-04-08 22:08:00,45.9,34.0,29.78,NE,45,0.0,0.9,63,0.00,,,0.00,WUHU216HW,2013-04-09 02:08:00,
2013-04-08 22:13:00,45.9,33.6,29.78,NE,45,0.0,0.4,62,0.00,,,0.00,WUHU216HW,2013-04-09 02:13:00,
2013-04-08 22:18:00,45.9,33.6,29.78,NE,45,0.0,0.0,62,0.00,,,0.00,WUHU216HW,2013-04-09 02:18:00,
2013-04-08 22:23:00,45.7,33.4,29.77,NE,45,0.7,0.7,62,0.00,,,0.00,WUHU216HW,2013-04-09 02:23:00,
2013-04-08 22:28:00,45.7,34.2,29.77,NE,45,0.8,1.1,64,0.00,,,0.00,WUHU216HW,2013-04-09 02:28:00,
2013-04-08 22:33:00,45.7,34.6,29.77,NE,45,0.7,1.1,65,0.00,,,0.00,WUHU216HW,2013-04-09 02:33:00,
2013-04-08 22:38:00,45.7,34.2,29.77,NE,45,0.0,1.1,64,0.00,,,0.00,WUHU216HW,2013-04-09 02:38:00,
2013-04-08 22:44:00,45.7,34.6,29.77,NE,45,0.0,0.7,65,0.00,,,0.00,WUHU216HW,2013-04-09 02:44:00,
2013-04-08 22:49:00,45.7,34.6,29.76,NE,45,0.0,0.2,65,0.00,,,0.00,WUHU216HW,2013-04-09 02:49:00,
2013-04-08 22:54:00,45.7,34.2,29.77,NE,45,0.0,0.4,64,0.00,,,0.00,WUHU216HW,2013-04-09 02:54:00,
2013-04-08 22:59:00,45.7,34.2,29.77,NE,45,0.0,0.2,64,0.00,,,0.00,WUHU216HW,2013-04-09 02:59:00,
2013-04-08 23:04:00,45.5,34.0,29.77,NE,45,0.4,0.4,64,0.00,,,0.00,WUHU216HW,2013-04-09 03:04:00,
2013-04-08 23:10:00,45.4,33.8,29.77,NE,45,0.0,0.4,64,0.00,,,0.00,WUHU216HW,2013-04-09 03:10:00,
2013-04-08 23:15:00,45.2,33.7,29.77,NE,45,0.0,0.4,64,0.00,,,0.00,WUHU216HW,2013-04-09 03:15:00,
2013-04-08 23:20:00,45.0,33.6,29.76,NE,45,0.5,0.7,64,0.00,,,0.00,WUHU216HW,2013-04-09 03:20:00,
2013-04-08 23:25:00,45.0,34.7,29.76,NE,45,0.5,0.7,67,0.00,,,0.00,WUHU216HW,2013-04-09 03:25:00,
2013-04-08 23:30:00,45.0,34.7,29.77,NE,45,0.0,0.7,67,0.00,,,0.00,WUHU216HW,2013-04-09 03:30:00,
2013-04-08 23:35:00,45.0,35.1,29.76,NE,45,0.9,0.9,68,0.00,,,0.00,WUHU216HW,2013-04-09 03:35:00,
2013-04-08 23:40:00,45.0,35.1,29.76,NE,45,0.0,0.9,68,0.00,,,0.00,WUHU216HW,2013-04-09 03:40:00,
2013-04-08 23:45:00,45.0,35.1,29.76,NE,45,0.9,0.9,68,0.00,,,0.00,WUHU216HW,2013-04-09 03:45:00,
2013-04-08 23:50:00,45.0,35.1,29.76,NE,45,0.2,0.9,68,0.00,,,0.00,WUHU216HW,2013-04-09 03:50:00,
2013-04-08 23:55:00,45.0,35.8,29.76,North,0,0.4,0.7,70,0.00,,,0.00,WUHU216HW,2013-04-09 03:55:00,